Date String (YYYY-MM-DD hh:mm:ss) UTC,Instrument flags,Ambient pressure (hPa),Sample flow (lpm),Bypass flow (lpm),Sample temperature (°C),Ambient temperature (°C),ASC tube jacket temperature (°C),LED temperature (°C),Box temperature (°C),Sample RH (%),Span deviation,Mass concentration (μg/m³),Mass concentration (μg/m³),Mass concentration (μg/m³)
DateTimeUTC,F1_M11,P_M11,Q1_M11,Q2_M11,T1_M11,T2_M11,T3_M11,T4_M11,T5_M11,U1_M11,ZSPAN_M11,X2_M11,X0_M11,X1_M11
2022-04-11 09:00:00,,0818.0,5.01,0.00,22.5,21.7,00.0,31.4,24.3,05.8,0000.0,0004.05,0012.31,0002.18
2022-04-11 09:01:00,,0818.0,5.00,0.00,22.5,21.7,00.0,31.4,24.3,05.8,0000.0,0003.99,0010.92,0002.16
2022-04-11 09:02:00,,0818.0,5.00,0.00,22.5,21.6,00.0,31.4,24.3,05.7,0000.0,0003.95,0011.16,0002.15
2022-04-11 09:03:00,,0818.0,5.00,0.00,22.5,21.6,00.0,31.4,24.3,05.7,0000.0,0003.95,0011.50,0002.14
2022-04-11 09:04:00,,0818.0,5.00,0.00,22.5,21.6,00.0,31.4,24.3,05.7,0000.0,0003.97,0011.83,0002.13
2022-04-11 09:05:00,,0818.0,5.00,0.00,22.5,21.6,00.0,31.4,24.2,05.7,0000.0,0003.95,0012.01,0002.13
2022-04-11 09:06:00,,0818.0,5.00,0.00,22.4,21.6,00.0,31.4,24.2,05.7,0000.0,0003.92,0012.12,0002.10
2022-04-11 09:07:00,,0818.0,5.01,0.00,22.4,21.5,00.0,31.4,24.2,05.8,0000.0,0003.95,0012.38,0002.08
2022-04-11 09:08:00,,0818.0,5.00,0.00,22.4,21.5,00.0,31.4,24.1,05.9,0000.0,0003.98,0012.98,0002.10
2022-04-11 09:09:00,,0818.0,5.00,0.00,22.4,21.5,00.0,31.4,24.1,05.9,0000.0,0003.98,0013.25,0002.10
2022-04-11 09:10:00,,0818.0,5.00,0.00,22.4,21.5,00.0,31.3,24.1,05.8,0000.0,0003.90,0013.52,0002.10
2022-04-11 09:11:00,,0817.9,5.01,0.00,22.3,21.4,00.0,31.3,24.1,05.8,0000.0,0003.92,0013.56,0002.09
2022-04-11 09:12:00,,0818.0,4.99,0.00,22.3,21.4,00.0,31.3,24.1,05.6,0000.0,0003.94,0013.55,0002.09
2022-04-11 09:13:00,,0818.0,4.99,0.00,22.3,21.4,00.0,31.3,24.1,05.6,0000.0,0003.95,0013.27,0002.10
2022-04-11 09:14:00,,0818.0,5.00,0.00,22.3,21.4,00.0,31.3,24.1,05.6,0000.0,0003.98,0013.03,0002.10
2022-04-11 09:15:00,,0818.0,5.00,0.00,22.3,21.4,00.0,31.3,24.1,05.6,0000.0,0003.96,0013.56,0002.11
2022-04-11 09:16:00,,0817.9,5.00,0.00,22.3,21.4,00.0,31.3,24.1,05.6,0000.0,0003.97,0014.57,0002.12
2022-04-11 09:17:00,,0817.9,5.00,0.00,22.3,21.4,00.0,31.3,24.1,05.6,0000.0,0003.95,0014.57,0002.12
2022-04-11 09:18:00,,0817.9,5.01,0.00,22.3,21.4,00.0,31.3,24.1,05.6,0000.0,0003.92,0014.24,0002.11
2022-04-11 09:19:00,,0817.9,5.00,0.00,22.3,21.4,00.0,31.3,24.0,05.6,0000.0,0003.93,0013.52,0002.10
2022-04-11 09:20:00,,0817.9,5.01,0.00,22.3,21.4,00.0,31.3,24.1,05.7,0000.0,0003.89,0012.33,0002.08
2022-04-11 09:21:00,,0817.9,5.00,0.00,22.3,21.4,00.0,31.3,24.1,05.6,0000.0,0003.90,0011.70,0002.08
2022-04-11 09:22:00,,0818.0,5.00,0.00,22.3,21.5,00.0,31.3,24.1,05.6,0000.0,0003.90,0011.91,0002.07
2022-04-11 09:23:00,,0818.0,5.01,0.00,22.4,22.1,00.0,31.3,24.2,05.6,0000.0,0003.86,0011.79,0002.07
2022-04-11 09:24:00,,0818.0,5.00,0.00,22.5,23.0,00.0,31.4,24.5,05.6,0000.0,0003.85,0011.74,0002.06
2022-04-11 09:25:00,,0818.0,5.00,0.00,22.6,23.1,00.0,31.4,24.6,05.6,0000.0,0003.80,0011.54,0002.03
2022-04-11 09:26:00,,0817.9,5.00,0.00,22.6,22.9,00.0,31.4,24.6,05.6,0000.0,0003.75,0010.72,0002.01
2022-04-11 09:27:00,,0817.9,4.99,0.00,22.6,22.7,00.0,31.4,24.5,05.7,0000.0,0003.73,0009.38,0001.99
2022-04-11 09:28:00,,0817.9,5.01,0.00,22.6,22.5,00.0,31.4,24.5,05.8,0000.0,0003.70,0009.09,0001.97
2022-04-11 09:29:00,,0817.9,5.00,0.00,22.6,22.3,00.0,31.5,24.5,05.9,0000.0,0003.66,0008.96,0001.97
2022-04-11 09:30:00,,0817.9,5.00,0.00,22.6,22.1,00.0,31.5,24.4,06.1,0000.0,0003.65,0008.53,0002.00
2022-04-11 09:31:00,,0817.9,5.00,0.00,22.6,22.0,00.0,31.5,24.4,06.1,0000.0,0003.67,0008.92,0002.01
2022-04-11 09:32:00,,0817.9,5.00,0.00,22.6,21.9,00.0,31.5,24.3,06.3,0000.0,0003.73,0009.18,0002.05
2022-04-11 09:33:00,,0817.9,5.00,0.00,22.5,21.8,00.0,31.5,24.3,06.4,0000.0,0003.80,0009.20,0002.09
2022-04-11 09:34:00,,0817.9,5.00,0.00,22.5,21.8,00.0,31.5,24.3,06.3,0000.0,0003.88,0009.21,0002.11
2022-04-11 09:35:00,,0817.9,5.00,0.00,22.5,21.7,00.0,31.5,24.3,06.0,0000.0,0003.85,0009.08,0002.13
2022-04-11 09:36:00,,0817.9,5.00,0.00,22.5,21.7,00.0,31.4,24.2,05.8,0000.0,0003.84,0009.01,0002.16
2022-04-11 09:37:00,,0817.9,5.00,0.00,22.5,21.6,00.0,31.4,24.2,05.8,0000.0,0003.86,0010.17,0002.16
2022-04-11 09:38:00,,0817.8,4.99,0.00,22.4,21.6,00.0,31.4,24.2,05.8,0000.0,0003.84,0011.04,0002.16
2022-04-11 09:39:00,,0817.9,5.00,0.00,22.4,21.5,00.0,31.4,24.1,05.8,0000.0,0003.84,0011.38,0002.19
2022-04-11 09:40:00,,0817.8,5.00,0.00,22.4,21.5,00.0,31.4,24.1,05.8,0000.0,0003.88,0012.16,0002.20
2022-04-11 09:41:00,,0817.9,5.01,0.00,22.4,21.5,00.0,31.4,24.1,05.7,0000.0,0003.92,0013.28,0002.18
2022-04-11 09:42:00,,0817.9,5.00,0.00,22.4,21.5,00.0,31.4,24.1,05.7,0000.0,0003.92,0013.26,0002.15
2022-04-11 09:43:00,,0817.8,5.00,0.00,22.4,21.5,00.0,31.4,24.1,05.6,0000.0,0003.89,0013.26,0002.11
2022-04-11 09:44:00,,0817.8,5.00,0.00,22.3,21.4,00.0,31.4,24.1,05.6,0000.0,0003.78,0013.14,0002.06
2022-04-11 09:45:00,,0817.8,5.00,0.00,22.3,21.4,00.0,31.4,24.1,05.7,0000.0,0003.64,0012.73,0002.04
2022-04-11 09:46:00,,0817.8,5.00,0.00,22.3,21.4,00.0,31.4,24.0,05.7,0000.0,0003.61,0012.85,0002.01
2022-04-11 09:47:00,,0817.9,4.99,0.00,22.3,21.4,00.0,31.4,24.0,05.6,0000.0,0003.67,0013.78,0001.98
2022-04-11 09:48:00,,0817.9,5.00,0.00,22.3,21.3,00.0,31.3,24.0,05.6,0000.0,0003.71,0013.19,0001.98
2022-04-11 09:49:00,,0817.9,5.00,0.00,22.3,21.3,00.0,31.3,24.0,05.6,0000.0,0003.73,0012.47,0001.98
2022-04-11 09:50:00,,0817.8,4.99,0.00,22.3,21.3,00.0,31.3,24.0,05.6,0000.0,0003.72,0012.15,0001.97
2022-04-11 09:51:00,,0817.8,5.01,0.00,22.3,21.3,00.0,31.3,24.0,05.6,0000.0,0003.74,0011.78,0001.96
2022-04-11 09:52:00,,0817.9,5.01,0.00,22.2,21.3,00.0,31.3,24.0,05.5,0000.0,0003.72,0011.29,0001.95
2022-04-11 09:53:00,,0817.9,4.99,0.00,22.2,21.5,00.0,31.3,24.0,05.5,0000.0,0003.68,0010.65,0001.94
2022-04-11 09:54:00,,0817.9,4.99,0.00,22.3,22.2,00.0,31.3,24.2,05.5,0000.0,0003.64,0010.40,0001.95
2022-04-11 09:55:00,,0817.9,5.00,0.00,22.5,23.0,00.0,31.4,24.4,05.4,0000.0,0003.66,0010.25,0001.94
2022-04-11 09:56:00,,0817.8,5.00,0.00,22.6,23.1,00.0,31.4,24.5,05.4,0000.0,0003.74,0010.60,0001.94
2022-04-11 09:57:00,,0817.9,4.99,0.00,22.6,22.9,00.0,31.4,24.5,05.3,0000.0,0003.75,0010.74,0001.93
2022-04-11 09:58:00,,0817.9,5.01,0.00,22.6,22.6,00.0,31.4,24.5,05.3,0000.0,0003.64,0009.94,0001.92
2022-04-11 09:59:00,,0817.8,4.99,0.00,22.6,22.4,00.0,31.4,24.4,05.3,0000.0,0003.57,0009.00,0001.92
